Weather History for EDDG - December, 2013

Change the Weather History Date:

Sunday, December 15, 2013

  Actual Average Record
Temperature  
Mean Temperature 42 °F -  
Max Temperature 46 °F 39 °F 53 °F (1998)
Min Temperature 37 °F 30 °F 10 °F (2010)
Degree Days  
Heating Degree Days 24    
Moisture  
Dew Point 40 °F    
Average Humidity 83    
Maximum Humidity 93    
Minimum Humidity 68    
Precipitation  
Precipitation 0.02 in - - ()
Sea Level Pressure  
Sea Level Pressure 30.28 in    
Wind  
Wind Speed 9 mph ()    
Max Wind Speed 18 mph    
Max Gust Speed 31 mph    
Visibility 9.1 miles    
Events Rain    
Averages and records for this station are not official NWS values.
T = Trace of Precipitation, MM = Missing Value Source: Averaged Metar Reports

Daily Weather History Graph

Daily Weather History Graph

Search for Another Location

Airport or City:

Trip Planner

Search our weather history database for the weather conditions in past years. The results will help you decide how hot, cold, wet, or windy it might be!

Date:

Astronomy

Dec. 15, 2013 Rise Set
Actual Time 8:31 AM CET 4:17 PM CET
Civil Twilight 7:50 AM CET 4:58 PM CET
Nautical Twilight 7:06 AM CET 5:41 PM CET
Astronomical Twilight 6:25 AM CET 6:23 PM CET
Moon 3:19 PM CET (12/15) 6:22 AM CET (12/15)
Length of Visible Light 9h 07m
Length of Day
7h 45m
Waxing Gibbous, 97% of the Moon is Illuminated
Dec 15
Waxing Gibbous
Dec 17
Full
Dec 25
Last Quarter
Jan 1
New
Jan 8
First Quarter

Hourly Weather History & Observations

Time (CET) Temp. Windchill Dew Point Humidity Pressure Visibility Wind Dir Wind Speed Gust Speed Precip Events Conditions
12:00 AM 38 °F - 36 °F 90% 30.34 in 9 mi SSE 6.7 mph - -   Mostly Cloudy
12:20 AM 39.2 °F 33.6 °F 35.6 °F 87% 30.30 in - SSE 8.1 mph - N/A   Clear
12:50 AM 39.2 °F 33.0 °F 35.6 °F 87% 30.27 in - SSE 9.2 mph - N/A   Clear
1:00 AM 39 °F - 36 °F 84% 30.31 in 16 mi SSE 8.9 mph - -   Overcast
1:20 AM 39.2 °F 33.6 °F 35.6 °F 87% 30.27 in - SSE 8.1 mph - N/A   Clear
1:50 AM 39.2 °F 32.5 °F 35.6 °F 87% 30.24 in - SSE 10.4 mph - N/A   Clear
2:00 AM 40 °F - 36 °F 81% 30.27 in 16 mi SSE 11.2 mph - -   Overcast
2:20 AM 41.0 °F 37.1 °F 35.6 °F 81% 30.27 in - SW 5.8 mph - N/A   Clear
2:50 AM 41.0 °F 37.1 °F 37.4 °F 87% 30.24 in - South 5.8 mph - N/A   Clear
3:00 AM 41 °F - 36 °F 78% 30.28 in 16 mi South 6.7 mph - -   Overcast
3:20 AM 39.2 °F 35.0 °F 35.6 °F 87% 30.24 in - SSE 5.8 mph - N/A   Clear
3:50 AM 42.8 °F 37.5 °F 37.4 °F 81% 30.24 in - South 9.2 mph - N/A   Clear
4:00 AM 42 °F - 36 °F 74% 30.27 in 19 mi South 8.9 mph - -   Overcast
4:20 AM 41.0 °F 35.8 °F 35.6 °F 81% 30.24 in - SSW 8.1 mph - N/A   Clear
4:50 AM 42.8 °F 36.6 °F 37.4 °F 81% 30.21 in - South 11.5 mph - N/A   Clear
5:00 AM 43 °F - 36 °F 70% 30.25 in 19 mi South 11.2 mph - -   Overcast
5:20 AM 42.8 °F 37.0 °F 37.4 °F 81% 30.21 in - South 10.4 mph - N/A   Clear
5:50 AM 44.6 °F 38.1 °F 37.4 °F 76% 30.21 in - SSW 13.8 mph - N/A   Clear
6:00 AM 44 °F - 37 °F 68% 30.24 in 19 mi SSW 13.4 mph - -   Overcast
6:20 AM 44.6 °F 38.1 °F 37.4 °F 76% 30.21 in 6.2 mi SSW 13.8 mph - N/A Rain Light Rain
6:50 AM 44.6 °F 37.4 °F 37.4 °F 76% 30.21 in 6.2 mi SSW 16.1 mph - N/A Rain Rain
7:00 AM 45 °F - 38 °F 68% 30.25 in 9 mi SSW 15.7 mph - - Rain Rain
7:20 AM 44.6 °F 36.9 °F 39.2 °F 81% 30.24 in 6.2 mi SW 18.4 mph 31.1 mph N/A Rain Rain
7:50 AM 42.8 °F 35.8 °F 39.2 °F 87% 30.24 in 6.2 mi SW 13.8 mph - N/A Rain Light Rain
8:00 AM 43 °F - 40 °F 83% 30.27 in 7 mi SW 13.4 mph - - Rain Light Rain
8:20 AM 42.8 °F 35.4 °F 39.2 °F 87% 30.27 in 6.2 mi SW 15.0 mph - N/A   Mostly Cloudy
8:50 AM 42.8 °F 35.8 °F 41.0 °F 93% 30.27 in 2.5 mi SW 13.8 mph - N/A Rain Light Rain
9:00 AM 43 °F - 40 °F 87% 30.29 in 2 mi SW 13.4 mph - - Rain Light Rain
9:20 AM 42.8 °F 35.4 °F 41.0 °F 93% 30.27 in 6.2 mi SW 15.0 mph - N/A   Mostly Cloudy
9:50 AM 42.8 °F 36.2 °F 41.0 °F 93% 30.30 in 6.2 mi SW 12.7 mph - N/A   Mostly Cloudy
10:00 AM 43 °F - 41 °F 88% 30.32 in 9 mi SW 11.2 mph - - Rain Light Rain
10:20 AM 44.6 °F 38.8 °F 41.0 °F 87% 30.30 in 6.2 mi SW 11.5 mph - N/A   Mostly Cloudy
10:50 AM 44.6 °F 38.8 °F 41.0 °F 87% 30.30 in 6.2 mi SSW 11.5 mph - N/A   Mostly Cloudy
11:00 AM 44 °F - 40 °F 83% 30.33 in 12 mi SSW 11.2 mph - -   Mostly Cloudy
11:20 AM 44.6 °F 40.2 °F 41.0 °F 87% 30.30 in 6.2 mi SSW 8.1 mph - N/A   Mostly Cloudy
11:50 AM 44.6 °F 38.8 °F 41.0 °F 87% 30.30 in 6.2 mi SW 11.5 mph - N/A   Mostly Cloudy
12:00 PM 45 °F - 41 °F 79% 30.33 in 12 mi SW 11.2 mph - -   Mostly Cloudy
12:20 PM 44.6 °F 38.8 °F 41.0 °F 87% 30.30 in 6.2 mi SSW 11.5 mph - N/A   Mostly Cloudy
12:50 PM 44.6 °F 39.7 °F 41.0 °F 87% 30.30 in 6.2 mi SSW 9.2 mph - N/A   Mostly Cloudy
1:00 PM 46 °F - 42 °F 79% 30.32 in 16 mi SSW 8.9 mph - -   Partly Cloudy
1:20 PM 46.4 °F 41.9 °F 41.0 °F 81% 30.30 in 6.2 mi SSW 9.2 mph - N/A   Mostly Cloudy
1:50 PM 46.4 °F 42.4 °F 42.8 °F 87% 30.30 in 6.2 mi SSW 8.1 mph - N/A   Mostly Cloudy
2:00 PM 46 °F - 42 °F 80% 30.33 in 16 mi SSW 8.9 mph - -   Mostly Cloudy
2:20 PM 46.4 °F 41.9 °F 42.8 °F 87% 30.30 in 6.2 mi South 9.2 mph - N/A   Mostly Cloudy
2:50 PM 46.4 °F 42.4 °F 42.8 °F 87% 30.30 in 6.2 mi South 8.1 mph - N/A   Mostly Cloudy
3:00 PM 46 °F - 42 °F 81% 30.33 in 16 mi South 6.7 mph - -   Mostly Cloudy
3:20 PM 46.4 °F 42.4 °F 42.8 °F 87% 30.30 in 6.2 mi South 8.1 mph - N/A   Mostly Cloudy
3:50 PM 44.6 °F 40.2 °F 41.0 °F 87% 30.30 in 6.2 mi South 8.1 mph - N/A   Mostly Cloudy
4:00 PM 46 °F - 42 °F 80% 30.33 in 16 mi South 8.9 mph - -   Mostly Cloudy
4:20 PM 44.6 °F 40.2 °F 42.8 °F 93% 30.30 in 6.2 mi South 8.1 mph - N/A   Mostly Cloudy
4:50 PM 46.4 °F 42.4 °F 42.8 °F 87% 30.30 in 6.2 mi South 8.1 mph - N/A   Mostly Cloudy
5:00 PM 46 °F - 42 °F 82% 30.33 in 9 mi South 8.9 mph - -   Mostly Cloudy
5:20 PM 44.6 °F 39.7 °F 42.8 °F 93% 30.33 in 6.2 mi SSW 9.2 mph - N/A   Mostly Cloudy
5:50 PM 44.6 °F 40.7 °F 42.8 °F 93% 30.30 in 6.2 mi South 6.9 mph - N/A   Mostly Cloudy
6:00 PM 45 °F - 42 °F 84% 30.33 in 9 mi South 6.7 mph - -   Mostly Cloudy
6:20 PM 44.6 °F 41.4 °F 42.8 °F 93% 30.30 in 6.2 mi SSE 5.8 mph - N/A   Mostly Cloudy
6:50 PM 44.6 °F 40.7 °F 42.8 °F 93% 30.30 in 6.2 mi SSE 6.9 mph - N/A   Mostly Cloudy
7:00 PM 45 °F - 42 °F 85% 30.32 in 9 mi SSE 6.7 mph - -   Mostly Cloudy
7:20 PM 46.4 °F 42.4 °F 41.0 °F 81% 30.30 in 6.2 mi SSE 8.1 mph - N/A   Mostly Cloudy
7:50 PM 44.6 °F 40.2 °F 41.0 °F 87% 30.30 in 6.2 mi SSE 8.1 mph - N/A   Mostly Cloudy
8:00 PM 46 °F - 42 °F 79% 30.31 in 12 mi SSE 6.7 mph - -   Mostly Cloudy
8:20 PM 44.6 °F 40.7 °F 41.0 °F 87% 30.30 in 6.2 mi SSE 6.9 mph - N/A   Mostly Cloudy
8:50 PM 46.4 °F 42.9 °F 41.0 °F 81% 30.27 in 6.2 mi SSE 6.9 mph - N/A   Mostly Cloudy
9:00 PM 46 °F - 41 °F 77% 30.30 in 12 mi SSE 6.7 mph - -   Mostly Cloudy
9:20 PM 44.6 °F 41.4 °F 41.0 °F 87% 30.27 in 6.2 mi SSE 5.8 mph - N/A   Scattered Clouds
9:50 PM 44.6 °F 40.2 °F 41.0 °F 87% 30.27 in - SSE 8.1 mph - N/A   Clear
10:00 PM 45 °F - 40 °F 76% 30.30 in 16 mi SSE 8.9 mph - -   Scattered Clouds
10:20 PM 44.6 °F 40.7 °F 39.2 °F 81% 30.27 in - SSE 6.9 mph - N/A   Clear
10:50 PM 44.6 °F 40.7 °F 37.4 °F 76% 30.27 in - SSE 6.9 mph - N/A   Clear
11:00 PM 44 °F - 37 °F 68% 30.28 in 16 mi SSE 6.7 mph - -   Scattered Clouds
11:20 PM 44.6 °F 40.7 °F 35.6 °F 71% 30.24 in - South 6.9 mph - N/A   Clear
11:50 PM 42.8 °F 40.1 °F 33.8 °F 70% 30.27 in - SSE 4.6 mph - N/A   Clear